Orbital Elements at Epoch 2459200.5 (2020-Dec-17.0) TDB
Reference: JPL 13 (heliocentric ecliptic J2000)
Element | Value | Uncertainty (1-sigma) | Units |
e | .1869830368124197 | 5.5881e-08 | |
a | 2.518235511210086 | 1.6577e-08 | au |
q | 2.047368187915148 | 1.4656e-07 | au |
i | 1.380410630940195 | 3.5871e-06 | deg |
node | 231.6098846111605 | 0.00026809 | deg |
peri | 141.6548604949882 | 0.00026864 | deg |
M | 349.7475857717733 | 1.8809e-05 | deg |
tp | 2459242.068713765149 (2021-Jan-27.56871377) | 7.638e-05 | TDB |
period | 1459.630543823838 4.00 | 1.4412e-05 3.946e-08 | d yr |
n | .2466377546861257 | 2.4353e-09 | deg/d |
Q | 2.989102834505025 | 1.9676e-08 | au |
|
| | Orbit Determination Parameters
Additional Information
|